Regional Weather Roundup
Issued by NWS

Home | Current Version | Previous Version | Text Only | Print | Product List | Glossary On
Versions: 1 2 3 4 5 6 7 8 9 10 11 12 13 14 15 16 17 18 19 20 21 22 23 24 25 26 27 28 29 30 31 32 33 34 35 36 37 38 39 40 41 42 43 44 45 46 47 48 49 50
469
ASUS44 KLIX 021605
RWRLA
LOUISIANA WEATHER ROUNDUP
NATIONAL WEATHER SERVICE NEW ORLEANS LA
1000 AM CST MON MAR 02 2015

NOTE: "FAIR" INDICATES FEW OR NO CLOUDS BELOW 12,000 FEET WITH NO
      SIGNIFICANT WEATHER AND/OR OBSTRUCTIONS TO VISIBILITY.
      SKY/WX - SKY CONDITION AND SIGNIFICANT WEATHER.
      TMP - AIR TEMPERATURE.    DP   - DEWPOINT TEMPERATURE.
      RH  - RELATIVE HUMIDITY.  PRES - PRESSURE.
      HX  - HEAT INDEX.         WCI  - WIND CHILL INDEX.

*  THESE STATIONS ARE NOT NWS OR FAA STATIONS AND ARE NOT UNDER
   NWS QUALITY CONTROL.

LAZ040-048-061>063-065-066-069-021700-
SOUTHEAST LOUISIANA

CITY           SKY/WX    TMP DP  RH WIND       PRES   REMARKS
N.O. AUDUBON     N/A     70  70 100 MISG        N/A
N.O. INTL ARPT CLOUDY    70  67  90 S6        30.28S
N.O. LAKEFRONT CLOUDY    71  65  81 S9        30.28F
SLIDELL        CLOUDY    69  67  93 SE6       30.28S
BATON ROUGE    FOG       62  61  96 E5        30.28S VSB 1/2
BOOTHVILLE     SUNNY     72  68  87 S10       30.29S
BELLE CHASSE   CLOUDY    72  67  84 S7        30.28S
BOGALUSA*      FOG       63  60  90 E5        30.30F VSB 3/4
GALLIANO*      FOG       53  53  97 CALM      30.29S VSB 1/4
NEW ROADS*     HVY RAIN  56  55  99 CALM      30.29R
GONZALES*      CLOUDY    64  64 100 CALM      30.29R FOG
HAMMOND*       CLOUDY    63  61  94 CALM      30.30S FOG
HOUMA*         CLOUDY    72  70  94 CALM      30.28S FOG
PORT FOURCHON* PTSUNNY   68  68 100 SE7       30.31F

$$

LAZ041-044-053-054-021700-
SOUTHWEST LOUISIANA

CITY           SKY/WX    TMP DP  RH WIND       PRES   REMARKS
LAKE CHARLES   CLOUDY    57  56  96 N7        30.28R
LAFAYETTE      FOG       63  62  97 N6        30.28R VSB 1/2
PATTERSON      CLOUDY    68  66  94 SE5       30.29S
SALT POINT       N/A     68  67  96 SE3       30.26R
NEW IBERIA     CLOUDY    67  66  97 CALM      30.28R FOG
CHENAULT AIRPK NOT AVBL

$$

LAZ027-028-021700-
CENTRAL LOUISIANA

CITY           SKY/WX    TMP DP  RH WIND       PRES   REMARKS
FORT POLK      LGT RAIN  48  48 100 VRB3      30.33R FOG
ALEXANDRIA INT CLOUDY    47  46  97 NE5       30.32R
ALEXANDRIA     LGT RAIN  46  44  93 N6        30.34R

$$

LAZ001-002-021700-
NORTHWEST LOUISIANA

CITY           SKY/WX    TMP DP  RH WIND       PRES   REMARKS
SHREVEPORT     DRIZZLE   43  41  93 NE8       30.37R FOG
BARKSDALE AFB  NOT AVBL
DTN SHREVEPORT CLOUDY    41  39  93 NE7       30.38S FOG

$$

LAZ014-016-021700-
NORTHEAST LOUISIANA

CITY           SKY/WX    TMP DP  RH WIND       PRES   REMARKS
MONROE         CLOUDY    40  39  97 NE13      30.41R WCI  32
TALLULAH       LGT RAIN  44  42  93 NE9       30.37S

$$




USA.gov is the U.S. government's official web portal to all federal, state and local government web resources and services.